Location: Bettgenhausen
(50.6463°N, 7.5681°E)
Time: 18:50:20
(UTC+00:00)

STARLINK-42 - Pass Details

Date: 27 February 2020
Orbit: 394 x 397 km, 53.0° (Epoch: 30 March)

Event Time Altitude Azimuth Distance (km) Brightness Sun altitude
Rises 19:31:13 0° 289° (WNW) 2,312 8.3 -23.5°
Reaches altitude 10° 19:33:17 10° 289° (WNW) 1,453 6.9 -23.8°
Enters shadow 19:35:20 36° 286° (WNW) 661 4.5 -24.1°
